Time,TemperatureF,DewpointF,PressureIn,WindDirection,WindDirectionDegrees,WindSpeedMPH,WindSpeedGustMPH,Humidity,HourlyPrecipIn,Conditions,Clouds,dailyrainin,SoftwareType,DateUTC
2013-05-15 00:01:00,50.2,33.7,0.00,SSE,148,2.7,3.6,53,0.00,,---,0.00,VWS V13.01,2013-05-15 04:01:00,
2013-05-15 00:02:00,50.2,33.7,0.00,SSE,148,2.2,3.6,53,0.00,,---,0.00,VWS V13.01,2013-05-15 04:02:00,
2013-05-15 00:04:00,50.2,33.7,0.00,SSE,148,0.0,3.6,53,0.00,,---,0.00,VWS V13.01,2013-05-15 04:04:00,
2013-05-15 00:07:00,50.2,33.2,0.00,SE,131,0.0,3.6,52,0.00,,---,0.00,VWS V13.01,2013-05-15 04:07:00,
2013-05-15 00:12:00,50.2,33.7,0.00,SE,141,0.0,0.0,53,0.00,,---,0.00,VWS V13.01,2013-05-15 04:12:00,
2013-05-15 00:17:00,50.2,33.7,0.00,ESE,121,0.0,0.0,53,0.00,,---,0.00,VWS V13.01,2013-05-15 04:17:00,
2013-05-15 00:22:00,50.2,33.7,0.00,ESE,121,0.0,0.0,53,0.00,,---,0.00,VWS V13.01,2013-05-15 04:22:00,
2013-05-15 00:27:00,50.0,33.6,0.00,ESE,121,0.0,0.0,53,0.00,,---,0.00,VWS V13.01,2013-05-15 04:27:00,
2013-05-15 00:33:00,50.0,33.6,0.00,SE,141,0.0,0.0,53,0.00,,---,0.00,VWS V13.01,2013-05-15 04:33:00,
2013-05-15 00:38:00,50.0,34.0,0.00,SE,141,0.0,0.0,54,0.00,,---,0.00,VWS V13.01,2013-05-15 04:38:00,
2013-05-15 00:43:00,50.0,34.5,0.00,SE,141,0.0,0.0,55,0.00,,---,0.00,VWS V13.01,2013-05-15 04:43:00,
2013-05-15 00:48:00,50.0,34.5,0.00,SE,124,0.0,0.0,55,0.00,,---,0.00,VWS V13.01,2013-05-15 04:48:00,
2013-05-15 00:53:00,49.8,34.8,0.00,SE,137,0.0,0.0,56,0.00,,---,0.00,VWS V13.01,2013-05-15 04:53:00,
2013-05-15 00:58:00,49.8,34.8,0.00,SE,140,0.0,4.0,56,0.00,,---,0.00,VWS V13.01,2013-05-15 04:58:00,
2013-05-15 01:03:00,49.6,34.6,0.00,ESE,114,2.7,4.9,56,0.00,,---,0.00,VWS V13.01,2013-05-15 05:03:00,
2013-05-15 01:08:00,49.5,34.4,0.00,SE,124,0.0,4.9,56,0.00,,---,0.00,VWS V13.01,2013-05-15 05:08:00,
2013-05-15 01:13:00,49.5,34.9,0.00,ESE,117,3.6,5.4,57,0.00,,---,0.00,VWS V13.01,2013-05-15 05:13:00,
2013-05-15 01:18:00,49.5,34.9,0.00,SE,139,3.6,5.8,57,0.00,,---,0.00,VWS V13.01,2013-05-15 05:18:00,
2013-05-15 01:23:00,49.5,35.3,0.00,SE,135,5.4,5.4,58,0.00,,---,0.00,VWS V13.01,2013-05-15 05:23:00,
2013-05-15 01:28:00,49.5,34.9,0.00,SSE,151,6.3,7.2,57,0.00,,---,0.00,VWS V13.01,2013-05-15 05:28:00,
2013-05-15 01:33:00,49.5,34.9,0.00,SSE,166,3.6,5.8,57,0.00,,---,0.00,VWS V13.01,2013-05-15 05:33:00,
2013-05-15 01:38:00,49.5,34.9,0.00,SSE,157,0.0,5.8,57,0.00,,---,0.00,VWS V13.01,2013-05-15 05:38:00,
2013-05-15 01:43:00,49.5,34.9,0.00,SSE,167,2.2,5.8,57,0.00,,---,0.00,VWS V13.01,2013-05-15 05:43:00,
2013-05-15 01:48:00,49.5,34.9,0.00,SE,133,0.0,5.8,57,0.00,,---,0.00,VWS V13.01,2013-05-15 05:48:00,
2013-05-15 01:53:00,49.5,34.9,0.00,South,179,2.7,6.3,57,0.00,,---,0.00,VWS V13.01,2013-05-15 05:53:00,
2013-05-15 01:58:00,49.3,34.7,0.00,SE,130,5.4,6.3,57,0.00,,---,0.00,VWS V13.01,2013-05-15 05:58:00,
2013-05-15 02:04:00,49.3,35.1,0.00,SE,145,3.6,5.8,58,0.00,,---,0.00,VWS V13.01,2013-05-15 06:04:00,
2013-05-15 02:09:00,49.1,35.0,0.00,SSE,149,0.0,5.8,58,0.00,,---,0.00,VWS V13.01,2013-05-15 06:09:00,
2013-05-15 02:14:00,49.3,35.1,0.00,ESE,121,3.6,4.9,58,0.00,,---,0.00,VWS V13.01,2013-05-15 06:14:00,
2013-05-15 02:19:00,49.3,34.7,0.00,SE,138,4.0,4.9,57,0.00,,---,0.00,VWS V13.01,2013-05-15 06:19:00,
2013-05-15 02:24:00,49.3,34.7,0.00,SE,143,3.1,6.7,57,0.00,,---,0.00,VWS V13.01,2013-05-15 06:24:00,
2013-05-15 02:29:00,49.3,34.7,0.00,SE,129,2.7,6.7,57,0.00,,---,0.00,VWS V13.01,2013-05-15 06:29:00,
2013-05-15 02:34:00,49.3,35.1,0.00,SSE,153,4.0,4.0,58,0.00,,---,0.00,VWS V13.01,2013-05-15 06:34:00,
2013-05-15 02:39:00,49.3,35.1,0.00,SE,143,0.0,4.0,58,0.00,,---,0.00,VWS V13.01,2013-05-15 06:39:00,
2013-05-15 02:45:00,49.3,35.1,0.00,South,183,3.6,6.3,58,0.00,,---,0.00,VWS V13.01,2013-05-15 06:45:00,
2013-05-15 02:50:00,49.5,35.3,0.00,South,172,2.7,2.7,58,0.00,,---,0.00,VWS V13.01,2013-05-15 06:50:00,
2013-05-15 02:55:00,49.5,35.7,0.00,ESE,120,2.7,7.2,59,0.00,,---,0.00,VWS V13.01,2013-05-15 06:55:00,
2013-05-15 03:00:00,49.5,35.7,0.00,SSE,163,4.0,4.0,59,0.00,,---,0.00,VWS V13.01,2013-05-15 07:00:00,
2013-05-15 03:05:00,49.5,35.7,0.00,South,178,0.0,4.0,59,0.00,,---,0.00,VWS V13.01,2013-05-15 07:05:00,
2013-05-15 03:10:00,49.5,35.7,0.00,SE,142,0.0,0.0,59,0.00,,---,0.00,VWS V13.01,2013-05-15 07:10:00,
2013-05-15 03:15:00,49.3,35.6,0.00,SE,134,0.0,0.0,59,0.00,,---,0.00,VWS V13.01,2013-05-15 07:15:00,
2013-05-15 03:20:00,49.3,36.0,0.00,SE,143,3.1,4.9,60,0.00,,---,0.00,VWS V13.01,2013-05-15 07:20:00,
2013-05-15 03:25:00,49.3,36.0,0.00,SSE,148,4.9,6.3,60,0.00,,---,0.00,VWS V13.01,2013-05-15 07:25:00,
2013-05-15 03:30:00,49.1,35.8,0.00,SE,128,0.0,0.0,60,0.00,,---,0.00,VWS V13.01,2013-05-15 07:30:00,
2013-05-15 03:35:00,49.1,36.2,0.00,SE,135,6.3,6.3,61,0.00,,---,0.00,VWS V13.01,2013-05-15 07:35:00,
2013-05-15 03:40:00,49.1,36.2,0.00,SSE,159,4.0,4.0,61,0.00,,---,0.00,VWS V13.01,2013-05-15 07:40:00,
2013-05-15 03:45:00,48.9,36.1,0.00,SE,125,2.2,5.4,61,0.00,,---,0.00,VWS V13.01,2013-05-15 07:45:00,
2013-05-15 03:50:00,48.9,36.5,0.00,SE,127,0.0,0.0,62,0.00,,---,0.00,VWS V13.01,2013-05-15 07:50:00,
2013-05-15 03:55:00,48.9,36.5,0.00,ESE,117,0.0,5.4,62,0.00,,---,0.00,VWS V13.01,2013-05-15 07:55:00,
2013-05-15 04:00:00,49.1,36.7,0.00,SE,138,4.9,5.4,62,0.00,,---,0.00,VWS V13.01,2013-05-15 08:00:00,
2013-05-15 04:05:00,49.1,36.7,0.00,SSE,158,2.7,5.4,62,0.00,,---,0.00,VWS V13.01,2013-05-15 08:05:00,
2013-05-15 04:10:00,49.1,36.7,0.00,SSE,155,4.0,5.4,62,0.00,,---,0.00,VWS V13.01,2013-05-15 08:10:00,
2013-05-15 04:15:00,49.3,36.8,0.00,ESE,123,3.6,6.3,62,0.00,,---,0.00,VWS V13.01,2013-05-15 08:15:00,
2013-05-15 04:21:00,49.5,36.6,0.00,SSE,166,3.1,8.3,61,0.00,,---,0.00,VWS V13.01,2013-05-15 08:21:00,
2013-05-15 04:26:00,49.5,36.6,0.00,ESE,118,3.6,8.3,61,0.00,,---,0.00,VWS V13.01,2013-05-15 08:26:00,
2013-05-15 04:31:00,49.6,36.8,0.00,SSE,153,5.4,7.6,61,0.00,,---,0.00,VWS V13.01,2013-05-15 08:31:00,
2013-05-15 04:36:00,49.6,36.3,0.00,SSW,202,5.4,7.6,60,0.00,,---,0.00,VWS V13.01,2013-05-15 08:36:00,
2013-05-15 04:41:00,49.6,36.3,0.00,SSE,147,4.0,4.9,60,0.00,,---,0.00,VWS V13.01,2013-05-15 08:41:00,
2013-05-15 04:46:00,49.6,36.3,0.00,SE,145,6.3,8.1,60,0.00,,---,0.00,VWS V13.01,2013-05-15 08:46:00,
2013-05-15 04:51:00,49.8,36.1,0.00,SE,124,4.0,10.1,59,0.00,,---,0.00,VWS V13.01,2013-05-15 08:51:00,
2013-05-15 04:56:00,50.0,35.8,0.00,SE,136,4.0,10.1,58,0.00,,---,0.00,VWS V13.01,2013-05-15 08:56:00,
2013-05-15 05:01:00,50.2,36.0,0.00,SE,134,2.7,6.3,58,0.00,,---,0.00,VWS V13.01,2013-05-15 09:01:00,
2013-05-15 05:06:00,50.2,35.5,0.00,West,281,3.1,8.3,57,0.00,,---,0.00,VWS V13.01,2013-05-15 09:06:00,
2013-05-15 05:11:00,50.4,35.3,0.00,SSE,165,5.8,10.5,56,0.00,,---,0.00,VWS V13.01,2013-05-15 09:11:00,
2013-05-15 05:16:00,50.5,35.4,0.00,SSE,149,3.1,10.5,56,0.00,,---,0.00,VWS V13.01,2013-05-15 09:16:00,
2013-05-15 05:21:00,50.5,35.4,0.00,SSW,194,2.2,3.1,56,0.00,,---,0.00,VWS V13.01,2013-05-15 09:21:00,
2013-05-15 05:26:00,50.7,35.2,0.00,SSW,196,5.8,8.7,55,0.00,,---,0.00,VWS V13.01,2013-05-15 09:26:00,
2013-05-15 05:31:00,50.7,36.1,0.00,SE,145,11.0,11.0,57,0.00,,---,0.00,VWS V13.01,2013-05-15 09:31:00,
2013-05-15 05:36:00,50.5,36.8,0.00,East,80,3.1,11.0,59,0.00,,---,0.00,VWS V13.01,2013-05-15 09:36:00,
2013-05-15 05:41:00,50.5,36.8,0.00,South,175,5.4,8.1,59,0.00,,---,0.00,VWS V13.01,2013-05-15 09:41:00,
2013-05-15 05:46:00,50.4,36.6,0.00,SW,217,3.6,8.1,59,0.00,,---,0.00,VWS V13.01,2013-05-15 09:46:00,
2013-05-15 05:51:00,50.5,36.8,0.00,West,272,0.0,5.4,59,0.00,,---,0.00,VWS V13.01,2013-05-15 09:51:00,
2013-05-15 05:57:00,50.5,36.8,0.00,SSW,213,0.0,5.4,59,0.00,,---,0.00,VWS V13.01,2013-05-15 09:57:00,
2013-05-15 06:02:00,50.5,36.8,0.00,WNW,285,0.0,0.0,59,0.00,,---,0.00,VWS V13.01,2013-05-15 10:02:00,
2013-05-15 06:07:00,50.5,36.8,0.00,East,92,0.0,3.6,59,0.00,,---,0.00,VWS V13.01,2013-05-15 10:07:00,
2013-05-15 06:12:00,50.5,36.8,0.00,SE,139,2.7,4.0,59,0.00,,---,0.00,VWS V13.01,2013-05-15 10:12:00,
2013-05-15 06:17:00,50.5,36.8,0.00,SSE,152,0.0,5.4,59,0.00,,---,0.00,VWS V13.01,2013-05-15 10:17:00,
2013-05-15 06:22:00,50.5,36.8,0.00,SSE,150,5.8,5.8,59,0.00,,---,0.00,VWS V13.01,2013-05-15 10:22:00,
2013-05-15 06:27:00,50.7,36.9,0.00,SSE,162,5.4,7.6,59,0.00,,---,0.00,VWS V13.01,2013-05-15 10:27:00,
2013-05-15 06:32:00,50.9,36.7,0.00,West,264,0.0,5.8,58,0.00,,---,0.00,VWS V13.01,2013-05-15 10:32:00,
2013-05-15 06:37:00,50.9,36.2,0.00,WSW,237,3.1,5.8,57,0.00,,---,0.00,VWS V13.01,2013-05-15 10:37:00,
2013-05-15 06:42:00,51.1,36.0,0.00,SSE,151,2.2,5.8,56,0.00,,---,0.00,VWS V13.01,2013-05-15 10:42:00,
2013-05-15 06:47:00,51.4,36.3,0.00,SE,146,3.1,5.8,56,0.00,,---,0.00,VWS V13.01,2013-05-15 10:47:00,
2013-05-15 06:52:00,51.4,36.3,0.00,South,191,5.4,10.5,56,0.00,,---,0.00,VWS V13.01,2013-05-15 10:52:00,
2013-05-15 06:57:00,51.6,36.0,0.00,North,1,3.6,10.5,55,0.00,,---,0.00,VWS V13.01,2013-05-15 10:57:00,
2013-05-15 07:03:00,52.0,35.9,0.00,SSW,211,3.1,5.8,54,0.00,,---,0.00,VWS V13.01,2013-05-15 11:03:00,
2013-05-15 07:08:00,52.2,36.0,0.00,SE,129,8.3,9.6,54,0.00,,---,0.00,VWS V13.01,2013-05-15 11:08:00,
2013-05-15 07:13:00,52.3,36.2,0.00,SSE,155,4.0,5.4,54,0.00,,---,0.00,VWS V13.01,2013-05-15 11:13:00,
2013-05-15 07:18:00,52.7,36.5,0.00,SE,145,0.0,5.8,54,0.00,,---,0.00,VWS V13.01,2013-05-15 11:18:00,
2013-05-15 07:25:00,53.4,37.2,0.00,SW,217,5.4,5.4,54,0.00,,---,0.00,VWS V13.01,2013-05-15 11:25:00,
2013-05-15 07:32:00,53.2,37.0,0.00,SSW,197,0.0,4.0,54,0.00,,---,0.00,VWS V13.01,2013-05-15 11:32:00,
2013-05-15 07:37:00,53.1,37.8,0.00,WNW,289,0.0,8.3,56,0.00,,---,0.00,VWS V13.01,2013-05-15 11:37:00,
2013-05-15 07:42:00,53.1,38.2,0.00,SSW,201,4.9,6.3,57,0.00,,---,0.00,VWS V13.01,2013-05-15 11:42:00,
2013-05-15 07:48:00,52.9,39.0,0.00,South,174,6.3,10.1,59,0.00,,---,0.00,VWS V13.01,2013-05-15 11:48:00,
2013-05-15 07:53:00,52.9,39.0,0.00,SW,223,0.0,4.0,59,0.00,,---,0.00,VWS V13.01,2013-05-15 11:53:00,
2013-05-15 07:59:00,52.9,39.4,0.00,WNW,288,0.0,4.9,60,0.00,,---,0.00,VWS V13.01,2013-05-15 11:59:00,
2013-05-15 08:04:00,52.7,39.2,0.00,ESE,108,4.9,6.3,60,0.00,,---,0.00,VWS V13.01,2013-05-15 12:04:00,
2013-05-15 08:09:00,53.1,39.1,0.00,East,99,3.6,6.3,59,0.00,,---,0.00,VWS V13.01,2013-05-15 12:09:00,
2013-05-15 08:14:00,53.2,39.3,0.00,SE,125,2.2,8.3,59,0.00,,---,0.00,VWS V13.01,2013-05-15 12:14:00,
2013-05-15 08:19:00,53.1,39.1,0.00,South,183,3.6,8.3,59,0.00,,---,0.00,VWS V13.01,2013-05-15 12:19:00,
2013-05-15 08:25:00,53.1,38.7,0.00,SE,133,3.6,10.1,58,0.00,,---,0.00,VWS V13.01,2013-05-15 12:25:00,
2013-05-15 08:30:00,53.1,39.6,0.00,ESE,120,5.4,6.3,60,0.00,,---,0.00,VWS V13.01,2013-05-15 12:30:00,
2013-05-15 08:36:00,52.7,40.1,0.00,SSE,160,3.6,15.0,62,0.00,,---,0.00,VWS V13.01,2013-05-15 12:36:00,
2013-05-15 08:41:00,52.7,40.5,0.00,SSE,168,7.6,14.1,63,0.00,,---,0.00,VWS V13.01,2013-05-15 12:41:00,
2013-05-15 08:46:00,52.5,40.7,0.00,SSW,202,8.3,14.1,64,0.00,,---,0.00,VWS V13.01,2013-05-15 12:46:00,
2013-05-15 08:51:00,52.5,40.7,0.00,SE,143,6.3,8.1,64,0.00,,---,0.00,VWS V13.01,2013-05-15 12:51:00,
2013-05-15 08:57:00,52.7,41.7,0.00,SSE,166,5.4,8.7,66,0.00,,---,0.00,VWS V13.01,2013-05-15 12:57:00,
2013-05-15 09:03:00,52.9,42.2,0.00,SW,228,0.0,5.8,67,0.00,,---,0.00,VWS V13.01,2013-05-15 13:03:00,
2013-05-15 09:09:00,53.1,42.4,0.00,East,99,0.0,5.8,67,0.00,,---,0.00,VWS V13.01,2013-05-15 13:09:00,
2013-05-15 09:15:00,53.6,42.1,0.00,South,190,2.2,6.7,65,0.00,,---,0.00,VWS V13.01,2013-05-15 13:15:00,
2013-05-15 09:20:00,53.8,42.3,0.00,SSE,159,3.6,3.6,65,0.00,,---,0.00,VWS V13.01,2013-05-15 13:20:00,
2013-05-15 09:25:00,54.1,42.7,0.00,South,169,6.3,8.1,65,0.00,,---,0.00,VWS V13.01,2013-05-15 13:25:00,
2013-05-15 09:32:00,54.7,43.2,0.00,SSE,157,8.1,8.1,65,0.00,,---,0.00,VWS V13.01,2013-05-15 13:32:00,
2013-05-15 09:37:00,55.0,43.5,0.00,South,178,5.4,8.3,65,0.00,,---,0.00,VWS V13.01,2013-05-15 13:37:00,
2013-05-15 09:42:00,55.2,43.3,0.00,West,267,0.0,8.3,64,0.00,,---,0.00,VWS V13.01,2013-05-15 13:42:00,
2013-05-15 09:47:00,55.6,43.2,0.00,SW,214,0.0,8.3,63,0.00,,---,0.00,VWS V13.01,2013-05-15 13:47:00,
2013-05-15 09:52:00,55.9,43.5,0.00,ESE,106,3.1,5.8,63,0.00,,---,0.00,VWS V13.01,2013-05-15 13:52:00,
2013-05-15 09:58:00,56.3,43.5,0.00,SSE,155,4.0,6.7,62,0.00,,---,0.00,VWS V13.01,2013-05-15 13:58:00,
2013-05-15 10:03:00,56.7,43.8,0.00,North,4,5.4,10.1,62,0.00,,---,0.00,VWS V13.01,2013-05-15 14:03:00,
2013-05-15 10:08:00,57.0,43.7,0.00,SE,126,5.8,10.1,61,0.00,,---,0.00,VWS V13.01,2013-05-15 14:08:00,
2013-05-15 10:14:00,57.7,44.0,0.00,SSE,163,3.6,9.6,60,0.00,,---,0.00,VWS V13.01,2013-05-15 14:14:00,
2013-05-15 10:19:00,58.3,44.5,0.00,SSE,148,0.0,9.6,60,0.00,,---,0.00,VWS V13.01,2013-05-15 14:19:00,
2013-05-15 10:25:00,60.1,45.7,0.00,WSW,245,4.0,5.8,59,0.00,,---,0.00,VWS V13.01,2013-05-15 14:25:00,
2013-05-15 10:30:00,61.7,47.2,0.00,SW,215,5.8,5.8,59,0.00,,---,0.00,VWS V13.01,2013-05-15 14:30:00,
2013-05-15 10:35:00,62.8,46.9,0.00,SSW,200,0.0,6.3,56,0.00,,---,0.00,VWS V13.01,2013-05-15 14:35:00,
2013-05-15 10:40:00,63.9,47.4,0.00,SSW,208,4.9,5.8,55,0.00,,---,0.00,VWS V13.01,2013-05-15 14:40:00,
2013-05-15 10:47:00,65.5,49.4,0.00,SSE,167,8.3,10.1,56,0.00,,---,0.00,VWS V13.01,2013-05-15 14:47:00,
2013-05-15 10:52:00,66.4,49.2,0.00,East,95,5.8,6.3,54,0.00,,---,0.00,VWS V13.01,2013-05-15 14:52:00,
2013-05-15 10:57:00,67.3,49.6,0.00,South,185,5.4,8.7,53,0.00,,---,0.00,VWS V13.01,2013-05-15 14:57:00,
2013-05-15 11:03:00,68.4,50.6,0.00,SE,137,4.0,6.3,53,0.00,,---,0.00,VWS V13.01,2013-05-15 15:03:00,
2013-05-15 11:09:00,69.4,51.6,0.00,WSW,250,0.0,8.1,53,0.00,,---,0.00,VWS V13.01,2013-05-15 15:09:00,
2013-05-15 11:14:00,70.3,51.9,0.00,SW,220,4.9,12.3,52,0.00,,---,0.00,VWS V13.01,2013-05-15 15:14:00,
2013-05-15 11:19:00,71.2,52.2,0.00,SW,227,7.6,12.3,51,0.00,,---,0.00,VWS V13.01,2013-05-15 15:19:00,
2013-05-15 11:24:00,72.3,52.1,0.00,SSW,211,8.7,12.3,49,0.00,,---,0.00,VWS V13.01,2013-05-15 15:24:00,
2013-05-15 11:29:00,72.9,52.0,0.00,North,4,5.8,12.8,48,0.00,,---,0.00,VWS V13.01,2013-05-15 15:29:00,
2013-05-15 11:34:00,73.2,51.2,0.00,West,261,7.2,13.2,46,0.00,,---,0.00,VWS V13.01,2013-05-15 15:34:00,
2013-05-15 11:40:00,73.6,51.0,0.00,South,172,8.3,16.8,45,0.00,,---,0.00,VWS V13.01,2013-05-15 15:40:00,
2013-05-15 11:45:00,73.8,51.7,0.00,SSW,199,7.6,14.5,46,0.00,,---,0.00,VWS V13.01,2013-05-15 15:45:00,
2013-05-15 11:51:00,74.3,51.6,0.00,SW,225,8.1,9.6,45,0.00,,---,0.00,VWS V13.01,2013-05-15 15:51:00,
2013-05-15 11:56:00,74.7,51.9,0.00,West,279,7.2,16.8,45,0.00,,---,0.00,VWS V13.01,2013-05-15 15:56:00,
2013-05-15 12:02:00,75.0,52.3,0.00,SSW,212,8.3,12.3,45,0.00,,---,0.00,VWS V13.01,2013-05-15 16:02:00,
2013-05-15 12:07:00,75.2,51.8,0.00,West,263,11.0,28.0,44,0.00,,---,0.00,VWS V13.01,2013-05-15 16:07:00,
2013-05-15 12:12:00,75.6,52.8,0.00,SSW,212,8.7,15.9,45,0.00,,---,0.00,VWS V13.01,2013-05-15 16:12:00,
2013-05-15 12:18:00,76.1,53.2,0.00,SW,229,3.1,16.8,45,0.00,,---,0.00,VWS V13.01,2013-05-15 16:18:00,
2013-05-15 12:23:00,76.1,52.6,0.00,West,268,11.0,11.9,44,0.00,,---,0.00,VWS V13.01,2013-05-15 16:23:00,
2013-05-15 12:28:00,76.6,53.1,0.00,SW,232,17.0,23.3,44,0.00,,---,0.00,VWS V13.01,2013-05-15 16:28:00,
2013-05-15 12:34:00,76.8,53.3,0.00,SSW,205,15.0,20.6,44,0.00,,---,0.00,VWS V13.01,2013-05-15 16:34:00,
2013-05-15 12:39:00,77.2,53.6,0.00,SW,227,10.1,20.6,44,0.00,,---,0.00,VWS V13.01,2013-05-15 16:39:00,
2013-05-15 12:47:00,77.5,53.3,0.00,SW,215,5.4,18.3,43,0.00,,---,0.00,VWS V13.01,2013-05-15 16:47:00,
2013-05-15 12:53:00,77.7,52.8,0.00,SSW,209,11.0,22.4,42,0.00,,---,0.00,VWS V13.01,2013-05-15 16:53:00,
2013-05-15 12:58:00,78.1,53.8,0.00,West,276,18.3,23.3,43,0.00,,---,0.00,VWS V13.01,2013-05-15 16:58:00,
2013-05-15 13:04:00,78.3,54.0,0.00,West,271,13.2,27.5,43,0.00,,---,0.00,VWS V13.01,2013-05-15 17:04:00,
2013-05-15 13:09:00,78.4,54.1,0.00,WSW,253,12.8,27.5,43,0.00,,---,0.00,VWS V13.01,2013-05-15 17:09:00,
2013-05-15 13:14:00,78.6,53.6,0.00,WSW,245,15.0,18.8,42,0.00,,---,0.00,VWS V13.01,2013-05-15 17:14:00,
2013-05-15 13:19:00,78.6,54.3,0.00,WSW,250,17.4,25.1,43,0.00,,---,0.00,VWS V13.01,2013-05-15 17:19:00,
2013-05-15 13:24:00,78.3,53.3,0.00,SW,234,12.3,19.7,42,0.00,,---,0.00,VWS V13.01,2013-05-15 17:24:00,
2013-05-15 13:30:00,78.4,54.7,0.00,WSW,254,13.2,13.2,44,0.00,,---,0.00,VWS V13.01,2013-05-15 17:30:00,
2013-05-15 13:35:00,78.8,53.1,0.00,SW,223,17.4,23.7,41,0.00,,---,0.00,VWS V13.01,2013-05-15 17:35:00,
2013-05-15 13:40:00,79.2,53.5,0.00,WNW,287,12.3,12.3,41,0.00,,---,0.00,VWS V13.01,2013-05-15 17:40:00,
2013-05-15 13:46:00,79.3,53.0,0.00,NW,320,11.0,25.1,40,0.00,,---,0.00,VWS V13.01,2013-05-15 17:46:00,
2013-05-15 13:52:00,79.3,52.3,0.00,WSW,239,11.0,26.2,39,0.00,,---,0.00,VWS V13.01,2013-05-15 17:52:00,
2013-05-15 13:59:00,79.0,53.3,0.00,SW,235,9.2,31.1,41,0.00,,---,0.00,VWS V13.01,2013-05-15 17:59:00,
2013-05-15 14:04:00,79.0,52.6,0.00,West,265,26.6,26.6,40,0.00,,---,0.00,VWS V13.01,2013-05-15 18:04:00,
2013-05-15 14:09:00,78.8,53.1,0.00,West,281,10.5,26.6,41,0.00,,---,0.00,VWS V13.01,2013-05-15 18:09:00,
2013-05-15 14:15:00,78.8,53.1,0.00,West,271,9.2,23.3,41,0.00,,---,0.00,VWS V13.01,2013-05-15 18:15:00,
2013-05-15 14:20:00,78.6,53.0,0.00,WSW,242,22.8,22.8,41,0.00,,---,0.00,VWS V13.01,2013-05-15 18:20:00,
2013-05-15 14:25:00,78.3,52.7,0.00,WSW,247,24.2,32.4,41,0.00,,---,0.00,VWS V13.01,2013-05-15 18:25:00,
2013-05-15 14:31:00,78.3,53.3,0.00,WSW,254,17.4,17.4,42,0.00,,---,0.00,VWS V13.01,2013-05-15 18:31:00,
2013-05-15 14:36:00,78.3,52.7,0.00,West,263,14.5,19.2,41,0.00,,---,0.00,VWS V13.01,2013-05-15 18:36:00,
2013-05-15 14:41:00,77.9,52.3,0.00,SSW,193,10.5,24.2,41,0.00,,---,0.00,VWS V13.01,2013-05-15 18:41:00,
2013-05-15 14:46:00,77.9,52.3,0.00,WSW,239,5.8,24.2,41,0.00,,---,0.00,VWS V13.01,2013-05-15 18:46:00,
2013-05-15 14:52:00,77.7,51.5,0.00,WSW,244,13.2,22.4,40,0.00,,---,0.00,VWS V13.01,2013-05-15 18:52:00,
2013-05-15 14:57:00,77.7,52.2,0.00,WSW,238,23.7,25.7,41,0.00,,---,0.00,VWS V13.01,2013-05-15 18:57:00,
2013-05-15 15:02:00,77.5,52.0,0.00,West,280,22.8,22.8,41,0.00,,---,0.00,VWS V13.01,2013-05-15 19:02:00,
2013-05-15 15:08:00,77.5,52.0,0.00,ESE,115,10.5,28.4,41,0.00,,---,0.00,VWS V13.01,2013-05-15 19:08:00,
2013-05-15 15:13:00,77.4,51.8,0.00,WSW,251,22.4,22.4,41,0.00,,---,0.00,VWS V13.01,2013-05-15 19:13:00,
2013-05-15 15:19:00,77.2,51.7,0.00,West,261,22.4,25.1,41,0.00,,---,0.00,VWS V13.01,2013-05-15 19:19:00,
2013-05-15 15:25:00,77.2,51.0,0.00,WSW,244,16.3,27.1,40,0.00,,---,0.00,VWS V13.01,2013-05-15 19:25:00,
2013-05-15 15:31:00,77.0,50.9,0.00,West,265,11.0,21.9,40,0.00,,---,0.00,VWS V13.01,2013-05-15 19:31:00,
2013-05-15 15:36:00,77.0,50.9,0.00,SW,235,15.4,21.9,40,0.00,,---,0.00,VWS V13.01,2013-05-15 19:36:00,
2013-05-15 15:41:00,77.0,49.5,0.00,NW,307,15.4,15.4,38,0.00,,---,0.00,VWS V13.01,2013-05-15 19:41:00,
2013-05-15 15:47:00,76.8,48.6,0.00,WSW,253,10.1,20.1,37,0.00,,---,0.00,VWS V13.01,2013-05-15 19:47:00,
2013-05-15 15:53:00,76.8,49.3,0.00,West,270,7.6,10.5,38,0.00,,---,0.00,VWS V13.01,2013-05-15 19:53:00,
2013-05-15 15:59:00,76.5,47.5,0.00,SW,233,19.2,20.6,36,0.00,,---,0.00,VWS V13.01,2013-05-15 19:59:00,
2013-05-15 16:04:00,76.1,48.0,0.00,WNW,283,8.3,18.3,37,0.00,,---,0.00,VWS V13.01,2013-05-15 20:04:00,
2013-05-15 16:09:00,76.1,48.7,0.00,WSW,258,8.1,18.3,38,0.00,,---,0.00,VWS V13.01,2013-05-15 20:09:00,
2013-05-15 16:17:00,75.7,48.4,0.00,West,265,7.6,19.7,38,0.00,,---,0.00,VWS V13.01,2013-05-15 20:17:00,
2013-05-15 16:22:00,75.7,47.7,0.00,West,264,13.2,13.2,37,0.00,,---,0.00,VWS V13.01,2013-05-15 20:22:00,
2013-05-15 16:28:00,75.6,48.2,0.00,WNW,301,10.1,13.2,38,0.00,,---,0.00,VWS V13.01,2013-05-15 20:28:00,
2013-05-15 16:33:00,75.6,48.2,0.00,WSW,256,9.6,13.2,38,0.00,,---,0.00,VWS V13.01,2013-05-15 20:33:00,
2013-05-15 16:39:00,75.7,48.4,0.00,SW,219,13.6,13.6,38,0.00,,---,0.00,VWS V13.01,2013-05-15 20:39:00,
2013-05-15 16:44:00,75.7,48.4,0.00,West,262,11.0,16.3,38,0.00,,---,0.00,VWS V13.01,2013-05-15 20:44:00,
2013-05-15 16:49:00,75.6,47.5,0.00,WSW,243,8.3,17.4,37,0.00,,---,0.00,VWS V13.01,2013-05-15 20:49:00,
2013-05-15 16:55:00,75.7,47.7,0.00,SW,219,11.0,13.6,37,0.00,,---,0.00,VWS V13.01,2013-05-15 20:55:00,
2013-05-15 17:00:00,75.4,46.6,0.00,West,261,11.0,13.2,36,0.00,,---,0.00,VWS V13.01,2013-05-15 21:00:00,
2013-05-15 17:06:00,74.7,46.7,0.00,West,281,5.4,14.5,37,0.00,,---,0.00,VWS V13.01,2013-05-15 21:06:00,
2013-05-15 17:11:00,74.8,46.1,0.00,West,271,7.6,10.1,36,0.00,,---,0.00,VWS V13.01,2013-05-15 21:11:00,
2013-05-15 17:17:00,74.5,46.5,0.00,West,279,6.7,10.1,37,0.00,,---,0.00,VWS V13.01,2013-05-15 21:17:00,
2013-05-15 17:22:00,73.9,45.3,0.00,WNW,286,6.3,13.2,36,0.00,,---,0.00,VWS V13.01,2013-05-15 21:22:00,
2013-05-15 17:28:00,73.4,44.8,0.00,WNW,287,12.8,13.2,36,0.00,,---,0.00,VWS V13.01,2013-05-15 21:28:00,
2013-05-15 17:34:00,73.6,45.7,0.00,WNW,283,3.6,8.1,37,0.00,,---,0.00,VWS V13.01,2013-05-15 21:34:00,
2013-05-15 17:39:00,73.4,44.8,0.00,WSW,241,5.4,10.1,36,0.00,,---,0.00,VWS V13.01,2013-05-15 21:39:00,
2013-05-15 17:44:00,73.2,45.4,0.00,West,263,5.8,10.1,37,0.00,,---,0.00,VWS V13.01,2013-05-15 21:44:00,
2013-05-15 17:50:00,73.0,45.2,0.00,West,260,7.2,10.1,37,0.00,,---,0.00,VWS V13.01,2013-05-15 21:50:00,
2013-05-15 17:55:00,73.0,46.0,0.00,West,272,8.1,8.7,38,0.00,,---,0.00,VWS V13.01,2013-05-15 21:55:00,
2013-05-15 18:00:00,72.9,45.1,0.00,West,276,5.4,6.3,37,0.00,,---,0.00,VWS V13.01,2013-05-15 22:00:00,
2013-05-15 18:05:00,72.5,45.5,0.00,West,261,4.0,7.6,38,0.00,,---,0.00,VWS V13.01,2013-05-15 22:05:00,
2013-05-15 18:13:00,72.5,46.2,0.00,West,260,4.0,4.9,39,0.00,,---,0.00,VWS V13.01,2013-05-15 22:13:00,
2013-05-15 18:18:00,72.3,46.0,0.00,West,280,6.3,7.6,39,0.00,,---,0.00,VWS V13.01,2013-05-15 22:18:00,
2013-05-15 18:23:00,72.1,45.8,0.00,West,264,4.9,6.7,39,0.00,,---,0.00,VWS V13.01,2013-05-15 22:23:00,
2013-05-15 18:28:00,72.0,45.0,0.00,SW,227,5.4,7.6,38,0.00,,---,0.00,VWS V13.01,2013-05-15 22:28:00,
2013-05-15 18:34:00,71.8,45.5,0.00,WNW,288,6.3,8.3,39,0.00,,---,0.00,VWS V13.01,2013-05-15 22:34:00,
2013-05-15 18:39:00,71.6,45.4,0.00,WSW,256,7.2,8.7,39,0.00,,---,0.00,VWS V13.01,2013-05-15 22:39:00,
2013-05-15 18:45:00,71.4,45.9,0.00,WNW,283,4.0,7.2,40,0.00,,---,0.00,VWS V13.01,2013-05-15 22:45:00,
2013-05-15 18:51:00,71.1,46.8,0.00,West,273,3.1,5.8,42,0.00,,---,0.00,VWS V13.01,2013-05-15 22:51:00,
2013-05-15 18:57:00,70.9,45.4,0.00,WNW,303,6.3,7.2,40,0.00,,---,0.00,VWS V13.01,2013-05-15 22:57:00,
2013-05-15 19:02:00,70.5,44.4,0.00,WSW,244,5.4,8.1,39,0.00,,---,0.00,VWS V13.01,2013-05-15 23:02:00,
2013-05-15 19:08:00,70.3,44.2,0.00,WNW,300,4.9,8.1,39,0.00,,---,0.00,VWS V13.01,2013-05-15 23:08:00,
2013-05-15 19:13:00,70.0,43.2,0.00,WNW,290,5.8,7.6,38,0.00,,---,0.00,VWS V13.01,2013-05-15 23:13:00,
2013-05-15 19:18:00,69.6,43.6,0.00,West,278,5.8,8.7,39,0.00,,---,0.00,VWS V13.01,2013-05-15 23:18:00,
2013-05-15 19:24:00,69.3,43.3,0.00,WSW,245,3.6,8.3,39,0.00,,---,0.00,VWS V13.01,2013-05-15 23:24:00,
2013-05-15 19:29:00,69.1,43.1,0.00,WNW,289,3.1,8.3,39,0.00,,---,0.00,VWS V13.01,2013-05-15 23:29:00,
2013-05-15 19:35:00,68.5,42.6,0.00,West,279,3.6,5.8,39,0.00,,---,0.00,VWS V13.01,2013-05-15 23:35:00,
2013-05-15 19:41:00,68.2,43.0,0.00,West,277,3.1,3.1,40,0.00,,---,0.00,VWS V13.01,2013-05-15 23:41:00,
2013-05-15 19:46:00,67.6,42.5,0.00,West,271,2.7,5.8,40,0.00,,---,0.00,VWS V13.01,2013-05-15 23:46:00,
2013-05-15 19:52:00,67.3,42.2,0.00,West,272,3.1,4.9,40,0.00,,---,0.00,VWS V13.01,2013-05-15 23:52:00,
2013-05-15 19:57:00,66.7,42.3,0.00,WNW,296,5.8,5.8,41,0.00,,---,0.00,VWS V13.01,2013-05-15 23:57:00,
2013-05-15 20:03:00,66.4,42.0,0.00,SSW,195,3.6,7.6,41,0.00,,---,0.00,VWS V13.01,2013-05-16 00:03:00,
2013-05-15 20:08:00,65.8,42.1,0.00,West,278,0.0,7.6,42,0.00,,---,0.00,VWS V13.01,2013-05-16 00:08:00,
2013-05-15 20:13:00,65.5,41.8,0.00,West,278,0.0,3.6,42,0.00,,---,0.00,VWS V13.01,2013-05-16 00:13:00,
2013-05-15 20:20:00,64.9,41.9,0.00,West,270,0.0,0.0,43,0.00,,---,0.00,VWS V13.01,2013-05-16 00:20:00,
2013-05-15 20:27:00,64.4,42.0,0.00,West,271,0.0,0.0,44,0.00,,---,0.00,VWS V13.01,2013-05-16 00:27:00,
2013-05-15 20:32:00,64.2,41.9,0.00,WNW,284,0.0,0.0,44,0.00,,---,0.00,VWS V13.01,2013-05-16 00:32:00,
2013-05-15 20:37:00,63.9,41.5,0.00,West,267,0.0,3.6,44,0.00,,---,0.00,VWS V13.01,2013-05-16 00:37:00,
2013-05-15 20:42:00,63.5,41.2,0.00,West,272,0.0,2.7,44,0.00,,---,0.00,VWS V13.01,2013-05-16 00:42:00,
2013-05-15 20:47:00,63.1,40.9,0.00,West,272,0.0,2.7,44,0.00,,---,0.00,VWS V13.01,2013-05-16 00:47:00,
2013-05-15 20:53:00,63.0,41.3,0.00,West,272,0.0,0.0,45,0.00,,---,0.00,VWS V13.01,2013-05-16 00:53:00,
2013-05-15 20:58:00,62.6,41.0,0.00,West,272,0.0,0.0,45,0.00,,---,0.00,VWS V13.01,2013-05-16 00:58:00,
2013-05-15 21:03:00,62.2,41.2,0.00,West,272,0.0,0.0,46,0.00,,---,0.00,VWS V13.01,2013-05-16 01:03:00,
2013-05-15 21:08:00,61.9,40.9,0.00,West,273,0.0,0.0,46,0.00,,---,0.00,VWS V13.01,2013-05-16 01:08:00,
2013-05-15 21:15:00,61.5,41.1,0.00,West,273,0.0,0.0,47,0.00,,---,0.00,VWS V13.01,2013-05-16 01:15:00,
2013-05-15 21:20:00,61.2,40.8,0.00,West,273,0.0,0.0,47,0.00,,---,0.00,VWS V13.01,2013-05-16 01:20:00,
2013-05-15 21:25:00,60.8,40.5,0.00,West,273,0.0,0.0,47,0.00,,---,0.00,VWS V13.01,2013-05-16 01:25:00,
2013-05-15 21:30:00,60.6,40.3,0.00,West,273,0.0,0.0,47,0.00,,---,0.00,VWS V13.01,2013-05-16 01:30:00,
2013-05-15 21:36:00,60.3,40.5,0.00,West,273,0.0,0.0,48,0.00,,---,0.00,VWS V13.01,2013-05-16 01:36:00,
2013-05-15 21:41:00,59.4,40.7,0.00,West,273,0.0,0.0,50,0.00,,---,0.00,VWS V13.01,2013-05-16 01:41:00,
2013-05-15 21:46:00,59.2,41.6,0.00,West,273,0.0,0.0,52,0.00,,---,0.00,VWS V13.01,2013-05-16 01:46:00,
2013-05-15 21:53:00,58.6,42.5,0.00,West,273,0.0,0.0,55,0.00,,---,0.00,VWS V13.01,2013-05-16 01:53:00,
2013-05-15 21:58:00,58.3,42.7,0.00,West,273,0.0,0.0,56,0.00,,---,0.00,VWS V13.01,2013-05-16 01:58:00,
2013-05-15 22:03:00,57.7,43.1,0.00,West,273,0.0,0.0,58,0.00,,---,0.00,VWS V13.01,2013-05-16 02:03:00,
2013-05-15 22:09:00,57.4,43.2,0.00,WSW,247,0.0,0.0,59,0.00,,---,0.00,VWS V13.01,2013-05-16 02:09:00,
2013-05-15 22:14:00,57.0,43.7,0.00,West,269,0.0,0.0,61,0.00,,---,0.00,VWS V13.01,2013-05-16 02:14:00,
2013-05-15 22:19:00,56.8,44.0,0.00,West,270,0.0,0.0,62,0.00,,---,0.00,VWS V13.01,2013-05-16 02:19:00,
2013-05-15 22:25:00,56.7,43.8,0.00,West,270,0.0,0.0,62,0.00,,---,0.00,VWS V13.01,2013-05-16 02:25:00,
2013-05-15 22:30:00,56.7,44.2,0.00,West,270,0.0,0.0,63,0.00,,---,0.00,VWS V13.01,2013-05-16 02:30:00,
2013-05-15 22:35:00,56.5,44.0,0.00,West,270,0.0,0.0,63,0.00,,---,0.00,VWS V13.01,2013-05-16 02:35:00,
2013-05-15 22:41:00,56.3,44.3,0.00,West,270,0.0,0.0,64,0.00,,---,0.00,VWS V13.01,2013-05-16 02:41:00,
2013-05-15 22:46:00,56.1,44.9,0.00,West,270,0.0,0.0,66,0.00,,---,0.00,VWS V13.01,2013-05-16 02:46:00,
2013-05-15 22:51:00,55.9,44.8,0.00,West,270,0.0,0.0,66,0.00,,---,0.00,VWS V13.01,2013-05-16 02:51:00,
2013-05-15 22:56:00,55.8,45.0,0.00,West,270,0.0,0.0,67,0.00,,---,0.00,VWS V13.01,2013-05-16 02:56:00,
2013-05-15 23:01:00,55.8,45.4,0.00,West,270,0.0,0.0,68,0.00,,---,0.00,VWS V13.01,2013-05-16 03:01:00,
2013-05-15 23:07:00,55.9,45.5,0.00,West,270,0.0,0.0,68,0.00,,---,0.00,VWS V13.01,2013-05-16 03:07:00,
2013-05-15 23:13:00,55.9,45.2,0.00,West,270,0.0,0.0,67,0.00,,---,0.00,VWS V13.01,2013-05-16 03:13:00,
2013-05-15 23:19:00,55.9,45.2,0.00,West,270,0.0,0.0,67,0.00,,---,0.00,VWS V13.01,2013-05-16 03:19:00,
2013-05-15 23:25:00,55.9,45.2,0.00,West,270,0.0,0.0,67,0.00,,---,0.00,VWS V13.01,2013-05-16 03:25:00,
2013-05-15 23:31:00,55.9,45.2,0.00,West,270,0.0,0.0,67,0.00,,---,0.00,VWS V13.01,2013-05-16 03:31:00,
2013-05-15 23:37:00,55.9,44.8,0.00,West,270,0.0,0.0,66,0.00,,---,0.00,VWS V13.01,2013-05-16 03:37:00,
2013-05-15 23:43:00,55.9,44.8,0.00,West,270,0.0,0.0,66,0.00,,---,0.00,VWS V13.01,2013-05-16 03:43:00,
2013-05-15 23:48:00,55.9,44.8,0.00,West,270,0.0,0.0,66,0.00,,---,0.00,VWS V13.01,2013-05-16 03:48:00,
2013-05-15 23:54:00,55.9,44.4,0.00,West,270,0.0,0.0,65,0.00,,---,0.00,VWS V13.01,2013-05-16 03:54:00,
2013-05-15 23:59:00,55.8,44.6,0.00,West,270,0.0,0.0,66,0.00,,---,0.00,VWS V13.01,2013-05-16 03:59:00,